Location: Alvediston
(51.0078°N, 2.0364°W)
Time: 04:06:51
(UTC+00:00)

Nadezhda 4 Rocket - Pass Details

Date: 27 February 2020
Orbit: 950 x 991 km, 82.9° (Epoch: 30 March)

Event Time Altitude Azimuth Distance (km) Brightness Sun altitude
Rises 19:40:29 0° 348° (NNW) 3,699 7.3 -18.9°
Reaches altitude 10° 19:43:00 10° 347° (NNW) 2,752 6.6 -19.3°
Maximum altitude 19:49:18 74° 264° (W) 1,032 4.2 -20.3°
Drops below altitude 10° 19:55:35 10° 181° (S) 2,748 6.2 -21.2°
Sets 19:58:06 0° 180° (S) 3,693 6.9 -21.6°
